Terminal Aerodrome Forecast
Issued by NWS Key West, FL

Home | Current Version | Previous Version | Text Only | Print | Product List | Glossary On
Versions: 1 2 3 4 5 6 7 8 9 10 11 12 13 14 15 16 17 18 19 20 21 22 23 24 25
000
FTUS42 KKEY 311146
TAFEYW
TAF
KEYW 311146Z 3112/0112 08005KT P6SM FEW025
     FM311600 11007KT P6SM VCTS SCT025CB BKN040
      TEMPO 3116/3120 3SM TSRA BKN025CB
     FM312000 09006KT P6SM FEW028 SCT070=

USA.gov is the U.S. government's official web portal to all federal, state and local government web resources and services.